NIMIQ 6

Last updated on Sun Apr 12 2026 00:02:52 GMT+0000 (Coordinated Universal Time)

1 38342U 12026A 26101.50266397 -.00000172 00000+0 00000+0 0 9998 2 38342 0.0557 71.6244 0002523 309.6069 268.3517 1.00272153 49745
UTC large
Height (km)
Speed (km/s)
/
Latitude / Longitude
Inclination (degrees)
Orbital Period (minutes)
Azimuth
Elevation
Range (km)
Doppler Factor

Next 0 passes for location: London (51.5072 / 0.1276)

Sorry there are no passes over London.
NIMIQ 6